Montoursville, PA

12:32 AM EST on February 13, 2016 (GMT -0500)
Williamsport Rgnl

Weather History for KIPT - January, 2014

Change the Weather History Date:

Monday, January 27, 2014

  Actual Average Record
Temperature  
Mean Temperature 22 °F 27 °F  
Max Temperature 31 °F 35 °F 62 °F (1916)
Min Temperature 12 °F 19 °F -6 °F (1961)
Degree Days  
Heating Degree Days 43 38  
Month to date heating degree days 1151 1034  
Since 1 July heating degree days 3467 3327  
Cooling Degree Days 0 0  
Month to date cooling degree days 0 0  
Year to date cooling degree days 0 0  
Moisture  
Dew Point 6 °F    
Average Humidity 54    
Maximum Humidity 81    
Minimum Humidity 26    
Precipitation  
Precipitation T in 0.08 in 1.69 in (1996)
Month to date precipitation 1.25 2.34  
Year to date precipitation 1.25 2.34  
Snow  
Snow T in 0.30 in 5.30 in (2004)
Month to date snowfall 7.9 9.0  
Since 1 July snowfall 24.2 17.7  
Snow Depth T in    
Sea Level Pressure  
Sea Level Pressure 29.84 in    
Wind  
Wind Speed 12 mph (WNW)    
Max Wind Speed 25 mph    
Max Gust Speed 33 mph    
Visibility 9 miles    
Events Snow    
T = Trace of Precipitation, MM = Missing Value Source: NWS Daily Summary

Daily Weather History Graph

Daily Weather History Graph

Search for Another Location

Airport or City:

Trip Planner

Search our weather history database for the weather conditions in past years. The results will help you decide how hot, cold, wet, or windy it might be!

Date:

Astronomy

Jan. 27, 2014 Rise Set
Actual Time 7:23 AM EST 5:18 PM EST
Civil Twilight 6:53 AM EST 5:47 PM EST
Nautical Twilight 6:20 AM EST 6:20 PM EST
Astronomical Twilight 5:47 AM EST 6:53 PM EST
Moon 4:02 AM EST (1/27) 2:01 PM EST (1/27)
Length of Visible Light 10h 53m
Length of Day
9h 54m
Waning Crescent, 15% of the Moon is Illuminated
Jan 27
Waning Crescent
Jan 30
New
Feb 6
First Quarter
Feb 14
Full
Feb 22
Last Quarter

Hourly Weather History & Observations

Time (EST) Temp. Windchill Dew Point Humidity Pressure Visibility Wind Dir Wind Speed Gust Speed Precip Events Conditions
1:54 AM 26.1 °F 16.2 °F 10.9 °F 53% 29.62 in 10.0 mi ENE 10.4 mph 20.7 mph N/A   Overcast
2:54 AM 26.1 °F 16.2 °F 10.9 °F 53% 29.59 in 10.0 mi East 10.4 mph - N/A   Mostly Cloudy
3:54 AM 27.0 °F 16.7 °F 10.9 °F 51% 29.57 in 10.0 mi East 11.5 mph 17.3 mph N/A   Overcast
4:54 AM 27.0 °F 17.3 °F 10.9 °F 51% 29.54 in 10.0 mi East 10.4 mph - N/A   Overcast
5:54 AM 28.0 °F 16.1 °F 12.0 °F 51% 29.53 in 10.0 mi East 16.1 mph 20.7 mph N/A   Overcast
6:54 AM 28.0 °F 16.1 °F 12.0 °F 51% 29.54 in 10.0 mi East 16.1 mph 24.2 mph N/A   Overcast
7:54 AM 28.9 °F - 12.9 °F 51% 29.59 in 9.0 mi Calm Calm - 0.00 in Snow Light Snow
8:11 AM 26.6 °F 19.1 °F 17.6 °F 69% 29.61 in 1.5 mi West 6.9 mph - 0.00 in Snow Light Snow
8:18 AM 26.6 °F 19.1 °F 17.6 °F 69% 29.62 in 2.0 mi West 6.9 mph - 0.00 in Snow Light Snow
8:32 AM 26.6 °F 21.2 °F 19.4 °F 74% 29.62 in 3.0 mi West 4.6 mph - 0.00 in Snow Light Snow
8:54 AM 27.0 °F 18.7 °F 21.0 °F 78% 29.67 in 3.0 mi West 8.1 mph - 0.00 in Snow Light Snow
9:54 AM 30.9 °F 19.4 °F 17.1 °F 57% 29.75 in 10.0 mi West 17.3 mph 26.5 mph 0.00 in   Overcast
10:54 AM 25.0 °F 9.5 °F 9.0 °F 51% 29.83 in 10.0 mi WNW 24.2 mph 31.1 mph N/A   Overcast
11:54 AM 23.0 °F 9.6 °F 3.0 °F 42% 29.89 in 10.0 mi WNW 16.1 mph 33.4 mph N/A   Mostly Cloudy
12:54 PM 25.0 °F 12.6 °F -0.0 °F 34% 29.88 in 10.0 mi West 15.0 mph 28.8 mph N/A   Mostly Cloudy
1:54 PM 25.0 °F 11.7 °F -4.0 °F 28% 29.89 in 10.0 mi WNW 17.3 mph 23.0 mph N/A   Clear
2:54 PM 26.1 °F 15.0 °F -4.0 °F 27% 29.91 in 10.0 mi NW 12.7 mph - N/A   Clear
3:54 PM 23.0 °F 12.4 °F -5.1 °F 29% 29.94 in 10.0 mi WNW 10.4 mph 18.4 mph N/A   Clear
4:54 PM 19.9 °F 7.9 °F -5.1 °F 33% 29.98 in 10.0 mi NW 11.5 mph 19.6 mph N/A   Clear
5:54 PM 18.0 °F 6.9 °F -4.0 °F 38% 30.02 in 10.0 mi WNW 9.2 mph - N/A   Scattered Clouds
6:54 PM 17.1 °F 5.0 °F -2.9 °F 41% 30.05 in 10.0 mi WNW 10.4 mph - N/A   Clear
7:54 PM 16.0 °F 6.3 °F -2.9 °F 43% 30.09 in 10.0 mi WNW 6.9 mph - N/A   Scattered Clouds
8:54 PM 15.1 °F 6.4 °F -2.0 °F 47% 30.11 in 10.0 mi West 5.8 mph - N/A   Overcast
9:54 PM 14.0 °F 2.0 °F 3.0 °F 62% 30.14 in 9.0 mi West 9.2 mph - 0.00 in   Overcast
10:54 PM 14.0 °F -0.8 °F 1.9 °F 59% 30.15 in 9.0 mi West 13.8 mph 19.6 mph 0.00 in Snow Light Snow
11:13 PM 12.2 °F -2.5 °F 3.2 °F 67% 30.13 in 4.0 mi West 12.7 mph - 0.00 in Snow Light Snow
11:42 PM 12.2 °F -0.2 °F 3.2 °F 67% 30.14 in 10.0 mi WNW 9.2 mph - 0.00 in   Overcast
11:54 PM 12.0 °F 2.7 °F 3.9 °F 70% 30.17 in 10.0 mi West 5.8 mph - 0.00 in   Overcast